Date,TemperatureHighF,TemperatureAvgF,TemperatureLowF,DewpointHighF,DewpointAvgF,DewpointLowF,HumidityHigh,HumidityAvg,HumidityLow,PressureMaxIn,PressureMinIn,WindSpeedMaxMPH,WindSpeedAvgMPH,GustSpeedMaxMPH,PrecipitationSumIn
2012-12-1,70.8,54.8,39.7,28.8,24.2,21.4,52,33,16,29.83,29.71,13,4,19,0.00
2012-12-2,69.1,52.7,36.4,22.6,17.7,9.7,54,28,10,29.82,29.48,9,2,12,0.00
2012-12-3,60.5,52.0,37.5,27.2,17.1,7.9,41,26,15,30.04,29.50,15,4,22,0.00
2012-12-4,58.6,43.3,31.1,18.0,14.6,7.8,56,34,15,30.27,30.04,5,2,12,0.00
2012-12-5,73.6,56.4,43.1,29.2,24.6,16.7,46,31,15,30.11,29.66,13,4,13,0.00
2012-12-6,57.7,48.4,37.2,34.3,30.6,26.4,74,51,31,29.82,29.67,7,2,11,0.00
2012-12-7,57.4,40.2,32.5,29.8,24.3,20.5,79,55,25,29.90,29.70,8,4,15,0.00
2012-12-8,56.4,37.2,27.1,25.6,20.4,9.6,88,56,18,29.89,29.56,10,3,17,0.00
2012-12-9,27.6,22.6,14.3,22.0,7.9,0.8,85,55,34,30.33,29.89,10,4,15,0.00
2012-12-10,42.6,29.7,15.1,23.5,5.2,-0.8,86,37,20,30.18,29.97,13,4,16,0.00
2012-12-11,46.7,32.3,22.0,23.7,16.1,9.5,88,56,23,30.09,29.83,9,4,12,0.01
2012-12-12,61.6,43.8,30.4,17.7,14.9,9.2,54,34,15,29.85,29.69,12,3,17,0.00
2012-12-13,59.4,41.4,31.4,20.9,16.4,10.1,52,38,15,29.94,29.81,7,2,12,0.00
2012-12-14,46.1,38.5,33.3,21.7,17.4,14.4,62,43,29,29.83,29.43,5,1,12,0.00
2012-12-15,49.3,38.7,31.9,29.4,23.3,19.6,86,55,32,29.70,29.59,7,3,13,0.00
2012-12-16,48.5,35.1,25.8,29.5,17.5,4.7,92,55,22,29.83,29.62,14,4,22,0.00
2012-12-17,53.7,41.4,30.3,19.9,15.1,10.1,45,35,24,29.80,29.53,15,5,20,0.00
2012-12-18,48.1,38.4,27.3,29.9,24.2,12.8,81,59,36,29.70,29.52,14,4,21,0.00
2012-12-19,27.2,23.1,17.0,21.9,13.6,-4.6,89,69,31,30.30,29.66,13,6,20,0.00
2012-12-20,48.9,27.9,12.1,15.6,6.7,0.2,63,43,18,30.42,30.28,9,4,12,0.00
2012-12-21,56.2,38.9,26.8,19.3,12.1,5.9,53,35,18,30.28,30.04,7,3,12,0.00
2012-12-22,54.2,39.2,27.9,16.6,10.1,1.7,59,33,12,30.04,29.88,6,3,12,0.00
2012-12-23,55.6,39.6,28.0,19.8,12.7,4.3,58,35,17,29.93,29.83,11,4,18,0.00
2012-12-24,38.2,30.5,20.2,24.1,18.3,16.2,89,62,42,29.99,29.68,8,3,16,0.00
2012-12-25,23.4,15.2,8.0,17.2,8.7,4.4,88,76,57,30.37,29.99,7,2,12,0.00
2012-12-26,24.0,16.1,8.9,14.6,9.9,4.8,84,76,62,30.26,29.85,10,2,12,0.00
2012-12-27,33.3,21.6,11.9,19.9,14.0,7.5,83,72,54,30.06,29.87,6,2,12,0.00
2012-12-28,38.0,25.4,15.4,17.3,8.0,0.7,85,52,25,30.26,30.04,11,3,20,0.00
2012-12-29,41.3,24.6,16.4,11.7,4.6,-2.2,67,43,20,30.30,30.04,6,3,12,0.01
2012-12-30,40.6,24.7,13.3,16.7,10.7,5.0,76,57,24,30.16,30.00,15,5,18,0.00
2012-12-31,28.1,23.7,21.0,16.7,15.1,11.5,80,70,58,30.18,30.04,5,2,12,0.00